Regional Weather Roundup
Issued by NWS Portland, ME

Home | Current Version | Previous Version | Text Only | Print | Product List | Glossary On
Versions: 1 2 3 4 5 6 7 8 9 10 11 12 13 14 15 16 17 18 19 20 21 22 23 24 25 26 27 28 29 30 31 32 33 34 35 36 37 38 39 40 41 42 43 44 45 46 47 48 49 50
000
ASUS41 KGYX 270710
RWRGYX
WEATHER ROUNDUP FOR MAINE AND NEW HAMPSHIRE
NATIONAL WEATHER SERVICE GRAY ME
300 AM EDT FRI MAR 27 2015

MEZ002-005-006-010-012-015-018-020-021-024-026-027-029-270800-
MAINE

CITY           SKY/WX    TMP DP  RH WIND       PRES   REMARKS
PORTLAND       CLOUDY    40  38  93 CALM      29.67R
SANFORD        CLOUDY    36  30  80 CALM      29.66S
BAR HARBOR     CLOUDY    37  37 100 N5        29.68R
WISCASSET      LGT RAIN  39  37  92 CALM      29.66R
ROCKLAND       CLOUDY    37  37 100 CALM      29.66R
FRYEBURG       FOG       34  34 100 CALM      29.65F VSB 1/2
LEWISTONAUBURN CLOUDY    36  34  93 CALM      29.64F
AUGUSTA        MIX PCPN  36  36 100 N5        29.64F VSB 3/4
WATERVILLE     CLOUDY    37  34  87 N6        29.62F
BANGOR         LGT RAIN  35  35 100 CALM      29.67S
GREENVILLE       N/A     32  31  96 NW9       29.59F
MILLINOCKET    CLOUDY    35  33  92 CALM      29.66S
HOULTON        CLOUDY    33  32  96 CALM      29.62F FOG
PRESQUE ISLE   CLOUDY    34  27  75 SW5       29.63S
FRENCHVILLE    CLOUDY    33  26  75 NW7       29.60F
CARIBOU        CLOUDY    33  28  81 W5        29.61S
$$

NHZ002-005-008-009-011-012-014-270800-
NEW HAMPSHIRE

CITY           SKY/WX    TMP DP  RH WIND       PRES   REMARKS
PORTSMOUTH     LGT RAIN  40  39  97 NW6       29.65R
ROCHESTER      CLOUDY    38  36  92 NW3       29.65R
NASHUA         CLOUDY    40  38  93 NW6       29.67S
MANCHESTER     CLOUDY    39  39 100 NW7       29.66R
CONCORD        CLOUDY    37  36  96 CALM      29.67S
LACONIA          N/A     36  34  93 CALM      29.64S
PLYMOUTH       CLOUDY    37  37  97 W6        29.67R
BERLIN         CLOUDY    33  32  96 CALM      29.63F
WHITEFIELD     CLOUDY    33  32  96 CALM      29.66F
JAFFREY        CLOUDY    36  35  96 CALM      29.67R FOG
KEENE          CLOUDY    36  36 100 CALM      29.69R
LEBANON        CLOUDY    34  34 100 CALM      29.68S FOG
MT WASHINGTON  FOG       18  18 100 NW28        N/A  VSB 0   WCI  -1
$$

VTZ005-007-008-270800-
VERMONT

CITY           SKY/WX    TMP DP  RH WIND       PRES   REMARKS
ST JOHNSBURY     N/A     34  33  96 MISG      29.67F
MONTPELIER     CLOUDY    32  32 100 CALM      29.72R FOG
BURLINGTON     LGT RAIN  35  32  88 W3        29.73R
$$

MAZ007-012-024-CTZ003-RIZ002-NYZ038-NYZ072-270800-
SOUTHERN NEW ENGLAND AND NY

CITY           SKY/WX    TMP DP  RH WIND       PRES   REMARKS
BOSTON         LGT RAIN  42  41  96 NE12      29.65S
WORCESTER      CLOUDY    39  37  92 N8        29.64R
NANTUCKET      CLOUDY    45  44  97 N7        29.61S
PROVIDENCE     LGT RAIN  44  42  93 N10       29.64R
HARTFORD       CLOUDY    41  38  89 N6        29.67R
ALBANY         CLOUDY    37  33  85 CALM      29.74R
NEW YORK CITY  LGT RAIN  43  38  82 N8        29.70S
$$

ANZ081-ANZ082-ANZ150-NHZ014-MEZ023>029-270800-
COASTAL MARINE OBSERVATIONS

STATION/POSITION TIME  TEMP    WIND        PRES    WAVE
                       AIR SEA DIR/SP/G            HT/PER
                 (UTC) (F)     (DEG/KT/KT) (MB)    (FT/S)
MOUNT DESERT ROC 0700   38                 1003.0F
MATINICUS ROCK   0700   38      10/ 11/ 12 1004.0R
WELLS            0636   39     350/  2/  3 1004.0R
ISLE OF SHOALS   0700   39      20/ 12/ 12 1003.4F
JEFFREYS LEDGE   0621      40                N/A     5/ 7
CASHES LEDGE BUO 0650   40 39              1003.5R   6/ 7
$$

.............KEY..............
   WCI - WIND CHILL
   TC  - TEMPERATURE IN CELSIUS
   VSB - VISIBILITY IN MILES
   HX  - HEAT INDEX
   FAIR- INDICATES FEW OR NO CLOUDS BELOW 12,000 FT, WITH NO
         SIGNIFICANT WEATHER AND/OR OBSTRUCTIONS TO VISIBILITY.




USA.gov is the U.S. government's official web portal to all federal, state and local government web resources and services.